Flag for U.S.A. Weather past 2 weeks in Macon, Georgia, U.S.A.

Now
76 °F

Clear.


Feels Like: 76 °F
Forecast: 72 / 95 °F
Wind: 3 mph from South

Location: Middle Georgia Regional Airport

Current Time: Jul 28, 2015 at 6:53:37 AM

Latest Report: Jul 28, 2015 at 5:53 AM


Visibility: 10 mi

Pressure: 29.93 "Hg

Humidity: 88%

Dew point: 72 °F

Location of MaconLocation

Historic Weather in Macon — Graph

°F

Macon temperature yesterday

Maximum temperature yesterday: 96 °F (at 3:53 PM)
Minimum temperature yesterday: 69 °F (at 6:53 AM)
Average temperature yesterday: 83 °F

Past Weeks' High & Low Weather Summary

 TemperatureHumidityPressure
High101 °F (Jul 19, 3:53 PM)97% (Jul 16, 3:53 AM)30.05 "Hg (Jul 16, 3:53 AM)
Low68 °F (Jul 26, 6:53 AM)31% (Jul 21, 4:53 PM)29.75 "Hg (Jul 14, 6:53 PM)
Average84 °F68%29.91 "Hg
* Reported Jul 13 4:53 AM — Jul 28 4:53 AM, Macon, Weather by CustomWeather, © 2015

Note: Actual official high and low records may vary slightly from our data, if they occured in-between our weather recording intervals... More about our weather records

Advertising

Macon weather history for previous 24 hours

 ConditionsComfort  
Time TempWeatherWind HumidityBarometerVisibility
4:53 AM
Tue, Jul 28
76 °FClear.No wind88%29.93 "Hg10 mi
3:53 AM75 °FClear.No wind88%29.93 "Hg10 mi
2:53 AM76 °FClear.3 mph85%29.94 "Hg10 mi
1:53 AM75 °FClear.No wind90%29.96 "Hg10 mi
12:53 AM76 °FClear.No wind88%29.96 "Hg10 mi
11:53 PM
Mon, Jul 27
78 °FClear.No wind74%29.94 "Hg10 mi
10:53 PM79 °FClear.No wind77%29.93 "Hg10 mi
9:53 PM81 °FClear.No wind77%29.91 "Hg10 mi
8:53 PM85 °FSunny.No wind63%29.92 "Hg10 mi
7:53 PM91 °FSunny.No wind47%29.90 "Hg10 mi
6:53 PM94 °FSunny.6 mph40%29.89 "Hg10 mi
5:53 PM94 °FSunny.6 mph38%29.90 "Hg10 mi
4:53 PM95 °FSunny.5 mph36%29.90 "Hg10 mi
3:53 PM96 °FSunny.6 mph37%29.91 "Hg10 mi
2:53 PM95 °FSunny.5 mph36%29.93 "Hg10 mi
1:53 PM94 °FSunny.6 mph40%29.96 "Hg10 mi
12:53 PM94 °FSunny.5 mph40%29.98 "Hg10 mi
11:53 AM91 °FSunny.No wind41%29.99 "Hg10 mi
10:53 AM88 °FSunny.No wind52%29.99 "Hg10 mi
9:53 AM85 °FSunny.N/A59%30.00 "Hg10 mi
7:53 AM73 °FFog.No wind90%29.98 "Hg6 mi
6:53 AM69 °FFog.No wind93%29.97 "Hg4 mi
Weather by CustomWeather, © 2015

See weather overviewHow to use our weather pages